Change the Weather History Date:

Saturday, January 11, 2014

  Actual Average Record
Temperature  
Mean Temperature 55 °F -  
Max Temperature 75 °F 64 °F 80 °F (2004)
Min Temperature 35 °F 39 °F 23 °F (2013)
Degree Days  
Heating Degree Days 10    
Growing Degree Days 5 (Base 50)    
Moisture  
Dew Point 32 °F    
Average Humidity 52    
Maximum Humidity 78    
Minimum Humidity 18    
Precipitation  
Precipitation 0.00 in - - ()
Sea Level Pressure  
Sea Level Pressure 30.11 in    
Wind  
Wind Speed 2 mph (WNW)    
Max Wind Speed 10 mph    
Max Gust Speed -    
Visibility 10 miles    
Events      
Averages and records for this station are not official NWS values.
T = Trace of Precipitation, MM = Missing Value Source: NWS Daily Summary

Daily Weather History Graph

Daily Weather History Graph

Search for Another Location

Airport or City:

Trip Planner

Search our weather history database for the weather conditions in past years. The results will help you decide how hot, cold, wet, or windy it might be!

Date:

Astronomy

Jan. 11, 2014 Rise Set
Actual Time 6:54 AM PST 4:59 PM PST
Civil Twilight 6:27 AM PST 5:26 PM PST
Nautical Twilight 5:56 AM PST 5:57 PM PST
Astronomical Twilight 5:26 AM PST 6:27 PM PST
Moon 1:45 PM PST (1/11) 3:05 AM PST (1/11)
Length of Visible Light 10h 59m
Length of Day
10h 04m
Waxing Gibbous, 84% of the Moon is Illuminated
Jan 11
Waxing Gibbous
Jan 15
Full
Jan 23
Last Quarter
Jan 30
New
Feb 6
First Quarter

Hourly Weather History & Observations

Time (PST) Temp. Windchill Dew Point Humidity Pressure Visibility Wind Dir Wind Speed Gust Speed Precip Events Conditions
12:58 AM 40.8 °F - 33.3 °F 74% 30.12 in 10.0 mi Calm Calm - N/A   Clear
1:58 AM 40.6 °F 38.6 °F 32.2 °F 72% 30.12 in 10.0 mi SW 3.5 mph - N/A   Clear
2:58 AM 36.7 °F - 29.5 °F 75% 30.14 in 10.0 mi Calm Calm - N/A   Clear
3:58 AM 36.5 °F - 27.9 °F 71% 30.12 in 10.0 mi NNW 2.3 mph - N/A   Clear
4:58 AM 37.6 °F - 31.1 °F 77% 30.13 in 10.0 mi Calm Calm - N/A   Clear
5:58 AM 37.4 °F - 30.6 °F 76% 30.15 in 10.0 mi East 1.2 mph - N/A   Clear
6:58 AM 35.1 °F - 28.9 °F 78% 30.17 in 10.0 mi Calm Calm - N/A   Clear
7:58 AM 43.2 °F - 32.7 °F 67% 30.17 in 10.0 mi Calm Calm - N/A   Clear
8:58 AM 50.9 °F - 34.2 °F 53% 30.19 in 10.0 mi East 2.3 mph - N/A   Clear
9:58 AM 58.1 °F - 33.4 °F 39% 30.18 in 10.0 mi ESE 3.5 mph - N/A   Partly Cloudy
10:58 AM 66.2 °F - 30.9 °F 27% 30.16 in 10.0 mi SSE 4.6 mph - N/A   Clear
11:58 AM 72.5 °F - 27.1 °F 19% 30.10 in 10.0 mi Variable 3.5 mph - N/A   Clear
12:58 PM 74.8 °F - 28.6 °F 18% 30.07 in 10.0 mi Calm Calm - N/A   Clear
1:58 PM 75.2 °F - 33.6 °F 22% 30.05 in 10.0 mi WNW 9.2 mph - N/A   Clear
2:58 PM 73.8 °F - 34.7 °F 24% 30.05 in 10.0 mi NW 10.4 mph - N/A   Clear
3:58 PM 71.2 °F - 35.1 °F 27% 30.06 in 10.0 mi WNW 6.9 mph - N/A   Clear
4:58 PM 65.3 °F - 33.4 °F 31% 30.06 in 10.0 mi WNW 4.6 mph - N/A   Clear
5:58 PM 56.8 °F - 31.8 °F 39% 30.08 in 10.0 mi NW 4.6 mph - N/A   Clear
6:58 PM 58.8 °F - 36.7 °F 44% 30.08 in 10.0 mi WNW 6.9 mph - N/A   Clear
7:58 PM 50.4 °F - 33.1 °F 52% 30.08 in 10.0 mi Calm Calm - N/A   Clear
8:58 PM 50.4 °F - 35.8 °F 57% 30.08 in 10.0 mi West 4.6 mph - N/A   Clear
9:58 PM 47.1 °F - 34.5 °F 62% 30.09 in 10.0 mi Calm Calm - N/A   Clear
10:58 PM 47.7 °F - 36.7 °F 66% 30.07 in 10.0 mi Calm Calm - N/A   Clear
11:58 PM 42.6 °F - 33.4 °F 70% 30.06 in 10.0 mi Variable 1.2 mph - N/A   Clear